Location: Aiyekoto
(8.4333°N, 4.3667°E)
Time: 23:46:53
(UTC+00:00)

ATLAS 5 CENTAUR R/B - Pass Details

Date: 07 June 2020
Orbit: 542 x 1117 km, 63.4° (Epoch: 12 July)

Event Time Altitude Azimuth Distance (km) Brightness Sun altitude
Exits shadow 02:52:34 11° 12° (NNE) 1,744 4.3 -33.8°
Drops below altitude 10° 02:52:43 10° 13° (NNE) 1,804 4.4 -33.8°
Sets 02:54:58 0° 17° (NNE) 2,722 5.5 -33.3°
